KB5DPX Weather Reports


Display with metric or nautical units.
time (UTC)temp
F
wind
direction
speed
MPH
gust
MPH
rain 1hr
in
rain 24hr
in
rain mn
in
humidity
%
barometer
mb
20260903044258 60 0.0 0.0 0.00 0.09 0.00 68 1014.4
20260903043745 60 0.0 0.0 0.00 0.09 0.00 68 1014.3
20260903043253 61 0.0 0.0 0.00 0.09 0.00 67 1014.4
20260903042801 61 0.0 0.0 0.00 0.09 0.00 67 1014.3
20260903042251 61 0.0 0.0 0.00 0.09 0.00 67 1014.2
20260903041759 61 0.0 0.0 0.00 0.09 0.00 68 1014.2
20260903041249 61 0.0 0.0 0.00 0.09 0.00 68 1014.2
20260903040759 61 0.0 0.0 0.00 0.09 0.00 68 1014.2
20260903040249 61 0.0 0.0 0.00 0.09 0.00 68 1014.2
20260903035756 61 0.0 0.0 0.00 0.09 0.09 69 1014.2
20260903035247 61 0.0 0.0 0.00 0.09 0.09 70 1014.2
20260903034754 61 0.0 0.0 0.00 0.09 0.09 69 1014.1
20260903034300 61 0.0 0.0 0.00 0.09 0.09 70 1014.1
20260903033750 62 0.0 0.0 0.00 0.09 0.09 69 1014.1
20260903033258 62 0.0 0.0 0.00 0.09 0.09 69 1014.1
20260903032747 62 0.0 0.0 0.00 0.09 0.09 69 1014.1
20260903032254 62 0.0 0.0 0.00 0.09 0.09 70 1014.1
20260903031803 62 0.0 0.0 0.00 0.09 0.09 70 1014.0
20260903031253 62 0.0 0.0 0.00 0.09 0.09 71 1014.0
20260903030758 62 0.0 0.0 0.00 0.09 0.09 72 1013.9
20260903030248 62 0.0 0.0 0.00 0.09 0.09 73 1013.9
20260903025754 62 0.0 0.0 0.00 0.09 0.09 73 1013.8
20260903025305 63 0.0 0.0 0.00 0.09 0.09 73 1013.9
20260903024752 63 0.0 0.0 0.00 0.09 0.09 74 1013.9
20260903023755 63 0.0 0.0 0.00 0.09 0.09 73 1014.0
20260903023245 63 0.0 0.0 0.00 0.09 0.09 74 1013.9
20260903022752 63 0.0 0.0 0.00 0.09 0.09 74 1014.0
20260903022257 63 0.0 0.0 0.00 0.09 0.09 74 1013.9
20260903021745 63 0.0 0.0 0.00 0.09 0.09 73 1013.9
20260903021301 63 0.0 0.0 0.00 0.09 0.09 74 1013.8
20260903020812 63 0.0 0.0 0.00 0.09 0.09 74 1013.9
20260903020301 63 0.0 0.0 0.00 0.09 0.09 74 1013.9
20260903015811 64 0.0 0.0 0.00 0.09 0.09 75 1013.8
20260903015305 63 0.0 0.0 0.00 0.09 0.09 75 1013.9
20260903014753 63 0.0 0.0 0.00 0.09 0.09 76 1013.8
20260903014257 63 0.0 0.0 0.00 0.09 0.09 77 1013.8
20260903013803 63 0.0 0.0 0.00 0.09 0.09 78 1013.8
20260903013255 64 0.0 0.0 0.00 0.09 0.09 80 1013.8
20260903012801 64 0.0 0.0 0.00 0.09 0.09 81 1013.7
20260903012251 64 0.0 0.0 0.00 0.09 0.09 83 1013.7
20260903011301 65 0.0 0.0 0.00 0.09 0.09 85 1013.5
20260903010752 65 0.0 0.0 0.00 0.09 0.09 85 1013.4
20260903010257 65 0.0 0.0 0.00 0.09 0.09 86 1013.3
20260903005747 66 0.0 0.0 0.00 0.09 0.09 87 1013.2
20260903005256 66 0.0 0.0 0.00 0.09 0.09 87 1013.2
20260903004746 66 0.0 0.0 0.00 0.09 0.09 86 1013.2
20260903004254 67 0.0 0.0 0.00 0.09 0.09 86 1013.2
20260903003804 67 0.0 0.0 0.00 0.09 0.09 86 1013.1
20260903003254 68 0.0 0.0 0.00 0.09 0.09 85 1013.2
20260903002802 68 0.0 0.0 0.00 0.09 0.09 85 1013.2
20260903002249 69 0.0 0.0 0.00 0.09 0.09 85 1013.2
20260903001756 69 0.0 0.0 0.00 0.09 0.09 83 1013.2
20260903001245 70 0.0 0.0 0.00 0.09 0.09 83 1013.3
20260903000756 70 0.0 0.0 0.00 0.09 0.09 82 1013.3
20260903000248 70 0.0 0.0 0.00 0.09 0.09 79 1013.3
20260902235753 70 0.0 0.0 0.00 0.09 0.09 78 1013.4
20260902235258 70 0.0 0.0 0.00 0.09 0.09 77 1013.5
20260902234747 71 0.0 0.0 0.00 0.09 0.09 77 1013.5
20260902234255 71 0.0 0.0 0.00 0.09 0.09 76 1013.4
20260902233800 71 0.0 0.0 0.00 0.09 0.09 75 1013.4
20260902233250 71 0.0 0.0 0.00 0.09 0.09 75 1013.4
20260902232757 71 0.0 0.0 0.00 0.09 0.09 75 1013.4
20260902232306 71 0.0 0.0 0.00 0.09 0.09 74 1013.4
20260902231751 71 0.0 0.0 0.00 0.09 0.09 74 1013.5
20260902231259 71 0.0 0.0 0.00 0.09 0.09 74 1013.5
20260902230749 71 0.0 0.0 0.00 0.09 0.09 75 1013.4
20260902225800 72 0.0 0.0 0.00 0.09 0.09 74 1013.4
20260902225246 72 0.0 0.0 0.00 0.09 0.09 73 1013.4
20260902224756 72 0.0 0.0 0.00 0.09 0.09 74 1013.5
20260902224247 72 0.0 0.0 0.00 0.09 0.09 74 1013.5
20260902223757 72 0.0 0.0 0.00 0.09 0.09 75 1013.4
20260902223302 72 0.0 0.0 0.00 0.09 0.09 74 1013.4
20260902222751 72 0.0 0.0 0.00 0.09 0.09 77 1013.4
20260902222256 72 0.0 0.0 0.00 0.09 0.09 81 1013.5
20260902221804 72 0.0 0.0 0.00 0.09 0.09 83 1013.5
20260902221254 72 0.0 0.0 0.00 0.09 0.09 84 1013.6
20260902220745 72 0.0 0.0 0.00 0.09 0.09 85 1013.6
20260902220249 72 0.0 0.0 0.00 0.09 0.09 85 1013.5
20260902215754 72 0.0 0.0 0.00 0.09 0.09 84 1013.4
20260902215306 72 0.0 0.0 0.00 0.09 0.09 84 1013.5
20260902214751 72 0.0 0.0 0.00 0.09 0.09 84 1013.5
20260902214258 72 0.0 0.0 0.00 0.09 0.09 85 1013.6
20260902213254 72 0.0 0.0 0.00 0.09 0.09 84 1013.4
20260902212803 72 0.0 0.0 0.00 0.09 0.09 84 1013.4
20260902212255 73 0.0 0.0 0.00 0.09 0.09 83 1013.3
20260902211801 73 0.0 0.0 0.00 0.09 0.09 83 1013.4
20260902211251 73 0.0 0.0 0.00 0.09 0.09 83 1013.3
20260902210758 73 0.0 0.0 0.00 0.09 0.09 80 1013.3
20260902210246 73 0.0 0.0 0.00 0.09 0.09 79 1013.2
20260902205755 73 0.0 0.0 0.00 0.09 0.09 81 1013.2
20260902205306 73 0.0 0.0 0.00 0.09 0.09 82 1013.4
20260902204753 73 0.0 0.0 0.00 0.09 0.09 80 1013.4
20260902204301 73 0.0 0.0 0.00 0.09 0.09 79 1013.5
20260902203749 73 0.0 0.0 0.00 0.09 0.09 79 1013.5
20260902203252 73 0.0 0.0 0.00 0.09 0.09 76 1013.7
20260902202801 73 0.0 0.0 0.00 0.09 0.09 77 1013.7
20260902202252 73 0.0 0.0 0.00 0.09 0.09 82 1013.8
20260902201758 73 0.0 0.0 0.00 0.09 0.09 82 1013.8
20260902200753 72 0.0 0.0 0.00 0.09 0.09 83 1013.8
20260902200301 72 0.0 0.0 0.00 0.09 0.09 85 1013.8
20260902195750 72 0.0 0.0 0.00 0.09 0.09 84 1013.8
20260902195257 72 0.0 0.0 0.00 0.09 0.09 83 1013.9
20260902194745 73 0.0 0.0 0.00 0.09 0.09 82 1013.9
20260902194253 73 0.0 0.0 0.00 0.09 0.09 82 1014.0
20260902193248 73 0.0 0.0 0.00 0.09 0.09 80 1014.1
20260902192755 73 0.0 0.0 0.00 0.09 0.09 78 1014.1
20260902192259 73 0.0 0.0 0.00 0.09 0.09 79 1014.1
20260902191746 73 0.0 0.0 0.00 0.09 0.09 77 1014.3
20260902191252 74 0.0 0.0 0.00 0.09 0.09 77 1014.3
20260902190812 74 0.0 0.0 0.00 0.09 0.09 78 1014.4
20260902190250 74 0.0 0.0 0.00 0.09 0.09 77 1014.4
20260902185808 74 0.0 0.0 0.00 0.09 0.09 73 1014.3
20260902185247 74 0.0 0.0 0.00 0.09 0.09 74 1014.3
20260902184308 74 0.0 0.0 0.00 0.09 0.09 75 1014.3
20260902183747 74 0.0 0.0 0.00 0.09 0.09 78 1014.1
20260902183303 74 0.0 0.0 0.00 0.09 0.09 80 1014.2
20260902182812 74 0.0 0.0 0.00 0.09 0.09 81 1014.3
20260902182258 74 0.0 0.0 0.00 0.09 0.09 82 1014.3
20260902181809 73 0.0 0.0 0.00 0.09 0.09 82 1014.3
20260902181258 74 0.0 0.0 0.00 0.09 0.09 82 1014.3
20260902180803 74 0.0 0.0 0.00 0.09 0.09 82 1014.3
20260902180255 74 0.0 0.0 0.00 0.09 0.09 80 1014.3
20260902175801 75 0.0 0.0 0.00 0.09 0.09 80 1014.3
20260902175250 74 0.0 0.0 0.00 0.09 0.09 81 1014.2
20260902174753 74 0.0 0.0 0.00 0.09 0.09 82 1014.3
20260902174259 73 0.0 0.0 0.00 0.09 0.09 82 1014.3
20260902173749 73 0.0 0.0 0.00 0.09 0.09 83 1014.3
20260902173259 72 0.0 0.0 0.00 0.09 0.09 83 1014.1
20260902172747 72 0.0 0.0 0.00 0.09 0.09 83 1014.1
20260902171758 71 0.0 0.0 0.00 0.09 0.09 86 1014.0
20260902171247 70 0.0 0.0 0.00 0.09 0.09 86 1014.0
20260902170756 70 0.0 0.0 0.00 0.09 0.09 86 1013.9
20260902170305 70 0.0 0.0 0.00 0.09 0.09 86 1013.4
20260902165754 70 0.0 0.0 0.00 0.09 0.09 86 1013.6
20260902165300 70 0.0 0.0 0.00 0.09 0.09 86 1013.9
20260902164751 70 0.0 0.0 0.00 0.09 0.09 86 1014.0
20260902164258 70 0.0 0.0 0.00 0.09 0.09 86 1014.2
20260902163748 70 0.0 0.0 0.00 0.09 0.09 86 1014.0
20260902163256 70 0.0 0.0 0.00 0.09 0.09 87 1014.0
20260902162801 70 0.0 0.0 0.00 0.09 0.09 87 1013.9
20260902162252 70 0.0 0.0 0.00 0.09 0.09 86 1013.9
20260902161755 70 0.0 0.0 0.00 0.09 0.09 86 1014.2
20260902161303 70 0.0 0.0 0.00 0.09 0.09 85 1014.3
20260902160752 70 0.0 0.0 0.00 0.09 0.09 84 1013.9
20260902160301 69 0.0 0.0 0.00 0.09 0.09 84 1013.9
20260902155750 69 0.0 0.0 0.01 0.09 0.09 84 1014.0
20260902155254 69 0.0 0.0 0.01 0.09 0.09 85 1013.9
20260902154759 69 0.0 0.0 0.01 0.09 0.09 85 1014.0
20260902154250 69 0.0 0.0 0.01 0.09 0.09 85 1014.0
20260902153755 69 0.0 0.0 0.01 0.09 0.09 85 1014.1
20260902153303 69 0.0 0.0 0.01 0.09 0.09 83 1014.1
20260902152751 69 0.0 0.0 0.01 0.09 0.09 83 1014.2
20260902151747 68 0.0 0.0 0.01 0.09 0.09 85 1014.3
20260902151255 69 0.0 0.0 0.01 0.09 0.09 85 1014.4
20260902150802 69 0.0 0.0 0.01 0.09 0.09 85 1014.6
20260902150253 69 0.0 0.0 0.01 0.09 0.09 86 1014.7
20260902145758 69 0.0 0.0 0.00 0.08 0.08 85 1014.9
20260902145246 69 0.0 0.0 0.00 0.08 0.08 84 1014.8
20260902144753 69 0.0 0.0 0.00 0.08 0.08 84 1014.5
20260902144303 69 0.0 0.0 0.00 0.08 0.08 81 1014.3
20260902143750 69 0.0 0.0 0.00 0.08 0.08 74 1013.8
20260902142756 68 0.0 0.0 0.00 0.08 0.08 71 1013.5
20260902142246 67 0.0 0.0 0.00 0.08 0.08 70 1013.2
20260902141755 67 0.0 0.0 0.00 0.08 0.08 70 1013.2
20260902141305 66 0.0 0.0 0.01 0.08 0.08 70 1013.0
20260902140754 66 0.0 0.0 0.02 0.08 0.08 72 1012.8
20260902140301 66 0.0 0.0 0.04 0.08 0.08 73 1012.6
20260902135750 66 0.0 0.0 0.06 0.08 0.08 73 1012.2
20260902135257 66 0.0 0.0 0.07 0.08 0.08 75 1011.7
20260902134805 66 0.0 0.0 0.08 0.08 0.08 77 1011.5
20260902134254 66 0.0 0.0 0.08 0.08 0.08 80 1011.7
20260902133804 67 0.0 0.0 0.08 0.08 0.08 83 1012.4
20260902133254 67 0.0 0.0 0.08 0.08 0.08 84 1013.3
20260902132801 67 0.0 0.0 0.08 0.08 0.08 85 1013.8
20260902132249 67 0.0 0.0 0.08 0.08 0.08 87 1014.4
20260902131752 67 0.0 0.0 0.08 0.08 0.08 87 1014.6
20260902131258 68 0.0 0.0 0.07 0.07 0.07 87 1014.9
20260902130252 68 0.0 0.0 0.04 0.04 0.04 87 1015.9
20260902125758 68 0.0 0.0 0.02 0.02 0.02 87 1016.5
20260902125247 68 0.0 0.0 0.01 0.01 0.01 87 1016.4
20260902124756 68 0.0 0.0 0.00 0.00 0.00 83 1016.3
20260902124247 67 0.0 0.0 0.00 0.00 0.00 74 1016.1
20260902123757 67 0.0 0.0 0.00 0.00 0.00 67 1016.0
20260902123306 67 0.0 0.0 0.00 0.00 0.00 64 1016.1
20260902122755 67 0.0 0.0 0.00 0.00 0.00 63 1015.8
20260902122305 68 0.0 0.0 0.00 0.00 0.00 63 1015.5
20260902121755 68 0.0 0.0 0.00 0.00 0.00 62 1015.2
20260902121302 69 0.0 0.0 0.00 0.00 0.00 61 1015.1
20260902120752 69 0.0 0.0 0.00 0.00 0.00 60 1015.0
20260902120300 69 0.0 0.0 0.00 0.00 0.00 60 1014.6
20260902115749 69 0.0 0.0 0.00 0.00 0.00 60 1014.2
20260902115256 69 0.0 0.0 0.00 0.00 0.00 61 1013.9
20260902114800 69 0.0 0.0 0.00 0.00 0.00 61 1013.8
20260902113746 69 0.0 0.0 0.00 0.00 0.00 61 1013.6
20260902113302 69 0.0 0.0 0.00 0.00 0.00 61 1013.5
20260902112750 69 0.0 0.0 0.00 0.00 0.00 61 1013.6
20260902112255 69 0.0 0.0 0.00 0.00 0.00 61 1013.4
20260902111746 69 0.0 0.0 0.00 0.00 0.00 61 1013.0
20260902111257 69 0.0 0.0 0.00 0.00 0.00 61 1013.1
20260902110807 69 0.0 0.0 0.00 0.00 0.00 61 1013.1
20260902110246 69 0.0 0.0 0.00 0.00 0.00 61 1012.9
20260902105802 69 0.0 0.0 0.00 0.00 0.00 61 1012.8
20260902105312 69 0.0 0.0 0.00 0.00 0.00 61 1012.9
20260902104756 69 0.0 0.0 0.00 0.00 0.00 61 1012.9
20260902104304 69 0.0 0.0 0.00 0.00 0.00 62 1012.8
20260902103755 69 0.0 0.0 0.00 0.00 0.00 61 1012.8
20260902103304 69 0.0 0.0 0.00 0.00 0.00 62 1012.9
20260902102753 69 0.0 0.0 0.00 0.00 0.00 62 1013.0
20260902102257 69 0.0 0.0 0.00 0.00 0.00 63 1013.1
20260902101801 69 0.0 0.0 0.00 0.00 0.00 63 1013.1
20260902101251 70 0.0 0.0 0.00 0.00 0.00 62 1013.2
20260902100801 70 0.0 0.0 0.00 0.00 0.00 62 1013.3
20260902100250 70 0.0 0.0 0.00 0.00 0.00 62 1013.5
20260902095756 70 0.0 0.0 0.00 0.00 0.00 63 1013.3
20260902095306 69 0.0 0.0 0.00 0.00 0.00 63 1013.3
20260902094752 69 0.0 0.0 0.00 0.00 0.00 63 1013.3
20260902094300 69 0.0 0.0 0.00 0.00 0.00 66 1013.3
20260902093747 69 0.0 0.0 0.00 0.00 0.00 65 1013.1
20260902093255 69 0.0 0.0 0.00 0.00 0.00 66 1013.2
20260902092802 69 0.0 0.0 0.00 0.00 0.00 66 1013.2
20260902092251 69 0.0 0.0 0.00 0.00 0.00 67 1013.0
20260902091758 69 0.0 0.0 0.00 0.00 0.00 68 1013.0
20260902091246 70 0.0 0.0 0.00 0.00 0.00 68 1013.0
20260902090755 70 0.0 0.0 0.00 0.00 0.00 68 1012.8
20260902090303 70 0.0 0.0 0.00 0.00 0.00 70 1012.7
20260902085750 71 0.0 0.0 0.00 0.00 0.00 69 1012.6
20260902084801 71 0.0 0.0 0.00 0.00 0.00 69 1012.7
20260902084251 71 0.0 0.0 0.00 0.00 0.00 69 1012.7
20260902083758 72 0.0 0.0 0.00 0.00 0.00 69 1012.6
20260902083306 72 0.0 0.0 0.00 0.00 0.00 68 1012.6
20260902082751 72 0.0 0.0 0.00 0.00 0.00 68 1012.6
20260902082301 72 0.0 0.0 0.00 0.00 0.00 68 1012.6
20260902081255 73 0.0 0.0 0.00 0.00 0.00 69 1012.7
20260902080805 73 0.0 0.0 0.00 0.00 0.00 69 1012.6
20260902080256 73 0.0 0.0 0.00 0.00 0.00 70 1012.5
20260902075803 73 0.0 0.0 0.00 0.00 0.00 70 1012.6
20260902075252 73 0.0 0.0 0.00 0.00 0.00 70 1012.6
20260902074759 73 0.0 0.0 0.00 0.00 0.00 71 1012.7
20260902074249 73 0.0 0.0 0.00 0.00 0.00 71 1012.6
20260902073757 73 0.0 0.0 0.00 0.00 0.00 71 1012.7
20260902073305 73 0.0 0.0 0.00 0.00 0.00 72 1012.6
20260902072754 73 0.0 0.0 0.00 0.00 0.00 72 1012.7
20260902072302 73 0.0 0.0 0.00 0.00 0.00 71 1012.7
20260902071750 73 0.0 0.0 0.00 0.00 0.00 71 1012.7
20260902071253 74 0.0 0.0 0.00 0.00 0.00 70 1012.7
20260902070803 74 0.0 0.0 0.00 0.00 0.00 70 1012.7
20260902070251 74 0.0 0.0 0.00 0.00 0.00 70 1012.7
20260902065800 74 0.0 0.0 0.00 0.00 0.00 70 1012.7
20260902065314 74 0.0 0.0 0.00 0.00 0.00 70 1012.7
20260902064801 74 0.0 0.0 0.00 0.00 0.00 70 1012.7
20260902064308 74 0.0 0.0 0.00 0.00 0.00 68 1012.6
20260902063757 74 0.0 0.0 0.00 0.00 0.00 66 1012.6
20260902063308 74 0.0 0.0 0.00 0.00 0.00 65 1012.4
20260902062754 74 0.0 0.0 0.00 0.00 0.00 63 1012.4
20260902062306 74 0.0 0.0 0.00 0.00 0.00 63 1012.4
20260902061754 74 0.0 0.0 0.00 0.00 0.00 62 1012.4
20260902061300 74 0.0 0.0 0.00 0.00 0.00 62 1012.4
20260902060808 74 0.0 0.0 0.00 0.00 0.00 63 1012.4
20260902060256 74 0.0 0.0 0.00 0.00 0.00 62 1012.4
20260902055805 74 0.0 0.0 0.00 0.00 0.00 61 1012.3
20260902055255 73 0.0 0.0 0.00 0.00 0.00 62 1012.2
20260902054801 73 0.0 0.0 0.00 0.00 0.00 62 1012.2
20260902054251 73 0.0 0.0 0.00 0.00 0.00 61 1012.1
20260902053759 73 0.0 0.0 0.00 0.00 0.00 62 1012.1
20260902053247 73 0.0 0.0 0.00 0.00 0.00 61 1012.1
20260902052258 73 0.0 0.0 0.00 0.00 0.00 61 1012.1
20260902051749 73 0.0 0.0 0.00 0.00 0.00 60 1012.0
20260902051258 73 0.0 0.0 0.00 0.00 0.00 60 1012.0
20260902050803 73 0.0 0.0 0.00 0.00 0.00 60 1012.0
20260902050252 73 0.0 0.0 0.00 0.00 0.00 60 1012.0
20260902045758 72 0.0 0.0 0.00 0.00 0.00 59 1012.1
20260902045306 72 0.0 0.0 0.00 0.00 0.00 59 1012.1
20260902044750 72 0.0 0.0 0.00 0.00 0.00 59 1012.1